www.pogodaiklimat.ru

Погода и климат >> Архив погоды >> Индия >> Jhansi


ПОГОДА в Jhansi

  • Прогноз погоды в Jhansi
  • Монитор погоды в Jhansi
  • Климат города

АРХИВ ПОГОДЫ в Jhansi

Время (UTC), дата Ветер
(напр.,м/с)
 
Видим.   Явления Облачность Т
(С)
Тd
(С)
f
(%)
Тe
(С)
Тes
(С)
Комфортность P
(гПа)
Po
(гПа)
Тmin
(С)
Tmax
(С)
R
(мм)
R24
(мм)
S
(см)
06 19.06 ЮЗ 2 4000 м ясно +37.2 +26.2 54 +53 +75 опасность
перегрева
999.8 1000.0
09 19.06 З 1 4000 м 5/0
[Ac trans Ci fib]
+38.6 +26.5 51 +55 +70 опасность
перегрева
998.4 998.0
12 19.06 ЮВ 1 2000 м слабый дождь {гроза} 9/5 750 м
[Cb calv As trans]
+30.2 +28.8 92 +52 +53 опасность
перегрева
999.5 1000.0 +39.1 5
03 20.06 ЮЗ 1 4000 м 5/3 1050 м
[Cu hum Ac trans]
+31.6 +25.4 70 +46 +52 опасность
перегрева
1001.7 1002.0 +27.8 +39.1 5
06 20.06 З 2 4000 м мгла 6/3 1050 м
[Cu hum Ac trans Ci fib]
+35.2 +26.3 60 +51 +63 опасность
перегрева
1002.5 1003.0
09 20.06 З 2 2000 м мгла 8/5 750 м
[Cu Sc Ac trans]
+37.6 +26.6 54 +54 +60 опасность
перегрева
998.8 999.0
12 20.06 Ю 2 2000 м мгла 8/5 750 м
[Cu Sc Ac trans]
+33.0 +26.9 70 +51 +51 опасность
перегрева
997.9 998.0 +38.6
03 21.06 ЮЗ 2 4000 м 4/0
[Ac trans Ci fib]
+31.6 +24.8 67 +45 +52 опасность
перегрева
1001.2 1001.0 +22.6 +38.6 14
06 21.06 З 2 4000 м ясно +35.6 +24.9 54 +49 +70 опасность
перегрева
1000.1 1000.0
09 21.06 ЮЗ 2 4000 м 5/3 1050 м
[Cu hum Ac trans]
+39.0 +24.7 44 +51 +60 опасность
перегрева
999.8 1000.0
12 21.06 ЮЗ 2 4000 м 4/0
[Ac trans Ci fib]
+38.6 +22.9 41 +48 +50 опасность
перегрева
996.4 996.0 +39.6
03 22.06 ЮЗ 1 4000 м 3/0
[Ci fib]
+30.0 +24.3 72 +42 +52 опасность
перегрева
1002.4 1002.0 +28.4 +39.6
06 22.06 ЮЗ 2 4000 м 5/0
[Ac trans Ci fib]
+36.8 +21.6 41 +44 +61 опасность
перегрева
1002.3 1002.0
09 22.06 ЮЗ 2 4000 м 5/3 1050 м
[Cu hum Ac trans]
+37.0 +24.6 49 +49 +60 опасность
перегрева
1001.1 1001.0
12 22.06 З 3 4000 м 4/3 1050 м
[Cu hum Ac trans]
+35.6 +23.6 50 +46 +48 опасность
перегрева
1000.3 1000.0 +37.1
03 23.06 СЗ 2 4000 м 3/0
[Ci fib]
+30.1 +23.2 67 +41 +49 опасность
перегрева
1003.9 1004.0 +26.9 +37.9
06 23.06 Ю 2 4000 м 5/3 1050 м
[Cu hum Ac trans]
+36.2 +23.3 48 +47 +60 опасность
перегрева
1002.7 1003.0
09 23.06 З 2 4000 м 5/3 1050 м
[Cu hum Ac trans]
+38.0 +22.5 41 +47 +56 опасность
перегрева
1000.0 1000.0
12 23.06 З 3 4000 м ясно +37.0 +23.6 46 +47 +49 опасность
перегрева
998.3 998.0 +39.2
03 24.06 ЮЗ 1 4000 м мгла 8/5 750 м
[Cb calv Ac trans]
+32.0 +23.7 62 +43 +47 опасность
перегрева
1001.0 1001.0 +30.0 +39.2
06 24.06 ЮЗ 1 4000 м мгла 8/5 750 м
[Cu Sc Ac trans]
+37.0 +26.2 54 +53 +61 опасность
перегрева
1000.1 1000.0
09 24.06 З 2 4000 м 5/3 1050 м
[Cu hum Ac trans]
+38.4 +25.3 48 +52 +63 опасность
перегрева
998.2 998.0
12 24.06 З 2 4000 м 5/0
[Ac trans Ci fib]
+37.8 +25.3 49 +51 +54 опасность
перегрева
996.1 996.0 +40.1
03 25.06 З 1 4000 м ясно +34.0 +24.4 57 +46 +57 опасность
перегрева
999.5 1000.0 +29.6 +40.1
06 25.06 В 3 4000 м 4/3 1050 м
[Cu hum Ac trans]
+39.0 +25.4 46 +52 +64 опасность
перегрева
998.7 999.0
09 25.06 ЮВ 3 4000 м 5/3 1050 м
[Cu hum Ac trans]
+40.4 +25.4 43 +54 +62 опасность
перегрева
996.9 997.0
12 25.06 ЮВ 2 4000 м 4/3 1050 м
[Cu hum Ac trans]
+39.6 +24.8 43 +52 +53 опасность
перегрева
994.0 994.0 +41.2

 

Местоположение метеостанции Jhansi (Uttar Pradesh, Индия): широта 25.45 долгота 78.62 высота над уровнем моря 258 м.

В архиве по умолчанию представлена погода в Jhansi за последнюю неделю. Архивные данные за месяц целиком и за предыдущие месяцы, начиная с января 2011 года, Вы можете получить, выбрав интересующий диапазон дат из раскрывающегося списка и нажав кнопку "Ввод!".

Внимание! Время в таблицах - всемирное. Для получения местного времени необходимо прибавить поправку, которая в Jhansi равна 5.5 ч.

Смотрите также архив погоды в соседних городах и на ближайших метеорологических станциях:

Погода в Tikamgarh (Madhya Pradesh, Индия) (79 км)
Погода в Nowgong (Madhya Pradesh, Индия) (94 км)
Погода в Gwalior (Madhya Pradesh, Индия) (94 км)
Погода в Shivpuri (Madhya Pradesh, Индия) (98 км)
Погода в Khajuraho (Madhya Pradesh, Индия) (141 км)
Погода в Guna (Madhya Pradesh, Индия) (158 км)
Погода в Hamirpur (Uttar Pradesh, Индия) (163 км)
Погода в Banda (Uttar Pradesh, Индия) (176 км)
Погода в Sagar (Madhya Pradesh, Индия) (178 км)
Погода в Sheopur (Madhya Pradesh, Индия) (196 км)

Пояснения к столбцам:

Ветер - указаны скорость ветра в м/с - средняя за 10 мин, порывы в срок и между сроками (в фигурных скобках) и направление, откуда дует ветер: С - северный, СВ - северо-восточный, В - восточный, ЮВ - юго-восточный, Ю - южный, ЮЗ - юго-западный, З - западный, СЗ - северо-западный.
Видимость - горизонтальная дальность видимости в метрах или километрах. При видимости от 1 до 10 км при отсутствии осадков обычно наблюдается дымка, при ухудшении видимости до 1 км и менее - туман. В сухую погоду видимость может ухудшаться дымом, пылью или мглою.
Явления - указаны атмосферные явления, наблюдавшиеся в срок или в последний час перед сроком; фигурными скобками обозначены явления, наблюдавшиеся между сроками (за 1-3 часа до срока); квадратными скобками обозначены град или гололедные отложения с указанием их диаметра в мм.
Облачность - указаны через наклонную черту общая и нижняя облачность в баллах и высота нижней границы облаков в метрах; квадратными скобками обозначены формы облаков: Ci - перистые, Cs - перисто-слоистые, Cc - перисто-кучевые, Ac - высококучевые, As - высокослоистые, Sc - слоисто-кучевые, Ns - слоисто-дождевые, Cu - кучевые, Cb - кучево-дождевые. Подробнее классификацию облаков см. в Атласе облаков (PDF).
T - Температура воздуха - температура, измеренная на высоте 2 м над землей.
Td - Температура точки росы - температура, при понижении до которой содержащийся в воздухе водяной пар достигнет насыщения.
f - Относительная влажность воздуха - влажноcть воздуха, измеренная на высоте 2 м над землей.
Te - Эффективная температура - температура, которую ощущает одетый по сезону человек в тени. Характеристика душности погоды. При расчете учитывается влияние влажности воздуха и скорости ветра на теплоощущения человека.
Tes - Эффективная температура на солнце - температура, которую ощущает человек, с поправкой на солнечный нагрев. Характеристика знойности погоды. Зависит от высоты солнца над горизонтом, облачности и скорости ветра. Ночью, в пасмурную погоду, а также при ветре 12 м/с и более поправка равна нулю.
P - Атмосферное давление - приведенное к уровню моря атмосферное давление.
Po - Атмосферное давление - измеренное на уровне метеостанции атмосферное давление.
Tmin - Минимальная температура - минимум температуры воздуха на высоте 2 м над землей.
Tmax - Максимальная температура - максимум температуры воздуха на высоте 2 м над землей.
R - Количество осадков - Количество выпавших осадков за период времени, мм. При наведении курсора мыши на число - период времени, за который выпало указанное количество осадков.
R24 - Количество осадков - Количество выпавших осадков за 24 часа, мм.
S - Снежный покров - Высота снежного покрова, см. При наведении курсора мыши на число - состояние снежного покрова и степень покрытия местности в баллах.